Find Globalstar M056

NORAD ID: 25945 Int'l Des: 1999-058 Owner: GLOBT Country: US Constellation: globalstar operational
LEOCIRCULAR

Live Position

Loading 3D Globe...

About Globalstar M056

Description loading...

Upcoming Passes

Passes for default location (London). Set your location on the main map for personalized predictions.

Altitude History

Loading altitude history...

Two-Line Element Set

1 25945U 99058C 26106.98442745 -.00000132 00000-0 -52141-3 0 9998
2 25945 51.9943 99.4621 0001255 59.9901 334.7553 12.04789125199249
Epoch: Apr 16, 2026 • Age: 12 hours

Current Status

Altitude 1663.2 km
Velocity 7.05 km/s
Sub-Earth Point 42.89°N, 154.55°W
Launch Date Oct 18, 1999
Age 26.4 years
Type communications

Technical Details

Classification Payload
Mass 450.00 kg
Dry Mass 380.00 kg
Total Mass 450.00 kg
Length 1.50 m
Diameter 0.60 m
Span 12.00 m
Shape Box + 2 Pan
Manufacturer LOR
Bus Type LS-400
Phase Status In Orbit
Owner/State GLOBT/US

Most Searched